OBJECT A, 69502

Orbit data source: Space-Track

You're viewing an Uncataloged Satellite

Recently launched and/or uncataloged satellites may have evolving metadata. Metadata may include but not limited to: Owner, Maufacturer, Bus, Motor, and Mission.

OBJECT A, 69502 is a satellite in SSO that was launched on Fri, 12 Jun 2026 UTC via a H3-30S launch vehicle from the Tanegashima Space Center (TNSTA). Unknown objects in Earth's orbit typically refer to objects detected orbiting the Earth but have not yet been identified or cataloged. These objects could be anything from previously untracked satellites, spent rocket stages, debris from satellite collisions, or even natural meteoroids temporarily captured by Earth's gravity.

Loading next visibility...
Identifier
69502, 2026-132A
Orbit
SSO
Country
Flag of TBDTBD
Related business
None
Manufacturer
Unknown
Mission
Operational spacecraft
Bus & Motor
Unknown
Mass
Unknown
Launch date (UTC)
2026-06-12 (1 day ago)
Launch vehicle
H3-30S
Launch site
Tanegashima Space Center (TNSTA)
Object type
Unknown
Shape & HBR
Unknown
Radar Cross Section
RCS unknown

Expand to show TLE details & history
Last TLE update: 7 hours ago

TLE from 7 hours ago
0 OBJECT A
1 69502U 26132A   26164.48383071  .00000623  00000-0  56191-4 0  9996
2 69502  97.6918 228.2077 0012143 285.1464  74.8416 14.99040716   228
Epoch: 2026-06-13T11:36Z
TLE epoch observation values (Epoch: 2026-06-13T11:36:42.973Z)
Latitude
0.00003°
Longitude
152.23037°
Altitude
570.715 km
Speed
7.577 km/s
True Right ascension
15h 12m 49s
True Declination
0° 00' 00"
Sunlit
Object was in full shadow at epoch
Visualization orbit readout
Latitude
Unknown
Longitude
Unknown
Altitude
Unknown
Speed
Unknown
Apparent Right ascension
Unknown
Apparent Declination
Unknown
Sunlit
N/A
Visualization observer readout
Local Sidereal Time
05:02:15
Azimuth
Unknown
Elevation
Unknown
Doppler factor
Unknown
Orbital elements
Apogee altitude
575.298 km
Perigee altitude
558.432 km
Semi-major axis
6,945.002 km
Eccentricity
0.00121
Inclination
97.6918°
RAAN
228.2077°
Arg. of periapsis
285.1464°
True anomaly
74.97596°
Mean anomaly
74.8416°
Eccentric anomaly
74.90877°
Mean motion
3.75003 °/min
Orbital period
96 mins
BSTAR
0.000056191
Loading maneuver chart data...
Computing Atmospheric mass density...
Loading historical data...
Loading historical data...
Loading historical data...
Loading historical data...
Loading historical data...
Loading historical data...
Loading historical data...
Other satellites on launch #132 in the year 2026 (2026-06-12 UTC)

Documentation

Showing up to 5 results
|